Showing default

ARABSAT 5C, 37810

Orbit data source: Space-Track

ARABSAT 5C, 37810 is a payload satellite owned by Arabsat (SA) in GEO that was launched on Wed, 21 Sep 2011 UTC via an ARIANE 5ECA launch vehicle from the French Guiana (FRGUI). Payload-class satellites include a variety of spacecraft equipped with specific instruments for various scientific and technological missions. These include communications satellites like Starlink; space stations such as the ISS; scientific satellites like the Hubble; Earth observation satellites from companies like Planet Labs, Umbra, and HawkEye 360; GPS; miniature CubeSats for education and research; and military/defense satellites.

Not visible in the next 10 days
Identifier
37810, 2011-049B
Orbit
GEO
Country
Flag of ABAB
Related business
Manufacturer
Astrium/Toulouse
Mission
Operational Commercial Communications
Bus & Motor
EUROSTAR 3000, R-4D-15
Mass
4,619 kg wet, ~2,000 kg dry
Launch date (UTC)
2011-09-21 (14 years ago)
Launch vehicle
ARIANE 5ECA
Launch site
French Guiana (FRGUI)
Object type
Payload
Rocket body
Debris
Shape & HBR
Box + 2 Pan + 1 Dish, 15.4 m
Radar Cross Section
26.994 m², Large (>1 m²)

Expand to show TLE details & history
Last TLE update: 15 hours ago

TLE from 15 hours ago
0 ARABSAT 5C
1 37810U 11049B   25306.32800087  .00000135  00000-0  00000+0 0  9996
2 37810   0.0558  10.1465 0004920 206.4348 323.3556  1.00271646 51761
Epoch: 2025-11-02T07:52Z
TLE epoch observation values (Epoch: 2025-11-02T07:52:19.275Z)
Latitude
-0.016°
Longitude
19.93854°
Altitude
35,769.414 km
Speed
3.076 km/s
True Right ascension
11h 59m 27s
True Declination
0° 00' 58"
Sunlit
Object was in daylight at epoch
Visualization orbit readout
Latitude
Unknown
Longitude
Unknown
Altitude
Unknown
Speed
Unknown
Apparent Right ascension
Unknown
Apparent Declination
Unknown
Sunlit
N/A
Visualization observer readout
Local Sidereal Time
18:24:37
Azimuth
Unknown
Elevation
Unknown
Doppler factor
Unknown
Orbital elements
Apogee altitude
35,808.45 km
Perigee altitude
35,766.959 km
Semi-major axis
42,165.841 km
Eccentricity
0.00049
Inclination
0.0558°
RAAN
10.1465°
Arg. of periapsis
206.4348°
True anomaly
323.32193°
Mean anomaly
323.3556°
Eccentric anomaly
323.33877°
Mean motion
0.25067 °/min
Orbital period
1,436.15 mins
BSTAR
0
Loading maneuver chart data...
Computing Atmospheric mass density...
Loading historical data...
Loading historical data...
Loading historical data...
Loading historical data...
Loading historical data...
Loading historical data...
Loading historical data...
Other satellites on launch #49 in the year 2011 (2011-09-21 UTC)

Documentation

Showing up to 5 results
|